Weather History for KDHT - April, 2014

Change the Weather History Date:

Friday, April 11, 2014

  Actual Average Record
Temperature  
Mean Temperature 61 °F 52 °F  
Max Temperature 82 °F 68 °F 91 °F (1972)
Min Temperature 39 °F 36 °F 19 °F (2013)
Degree Days  
Heating Degree Days 4 13  
Month to date heating degree days 137 157  
Since 1 July heating degree days 4320 4411  
Cooling Degree Days 0 0  
Month to date cooling degree days 0 0  
Year to date cooling degree days 0 0  
Growing Degree Days 10 (Base 50)    
Moisture  
Dew Point 31 °F    
Average Humidity 42    
Maximum Humidity 70    
Minimum Humidity 13    
Precipitation  
Precipitation 0.00 in 0.03 in 0.86 in (2012)
Month to date precipitation 0.05 0.35  
Year to date precipitation 0.23 2.44  
Snow  
Snow 0.00 in 0.10 in 1.00 in (1994)
Month to date snowfall 0.0 0.7  
Since 1 July snowfall 16.4 18.4  
Snow Depth 0.00 in    
Sea Level Pressure  
Sea Level Pressure 29.90 in    
Wind  
Wind Speed 8 mph (ESE)    
Max Wind Speed 22 mph    
Max Gust Speed 24 mph    
Visibility 10 miles    
Events Rain    
T = Trace of Precipitation, MM = Missing Value Source: NWS Daily Summary

Daily Weather History Graph

Daily Weather History Graph

Search for Another Location

Airport or City:

Trip Planner

Search our weather history database for the weather conditions in past years. The results will help you decide how hot, cold, wet, or windy it might be!

Date:

Astronomy

Apr. 11, 2014 Rise Set
Actual Time 7:22 AM CDT 8:20 PM CDT
Civil Twilight 6:56 AM CDT 8:46 PM CDT
Nautical Twilight 6:25 AM CDT 9:17 PM CDT
Astronomical Twilight 5:53 AM CDT 9:50 PM CDT
Moon 5:08 PM CDT (4/11) 5:12 AM CDT (4/11)
Length of Visible Light 13h 50m
Length of Day
12h 58m
Waxing Gibbous, 87% of the Moon is Illuminated
Apr 11
Waxing Gibbous
Apr 15
Full
Apr 22
Last Quarter
Apr 29
New
May 6
First Quarter

Hourly Weather History & Observations

Time (CDT) Temp. Windchill Dew Point Humidity Pressure Visibility Wind Dir Wind Speed Gust Speed Precip Events Conditions
12:53 AM 52.0 °F - 33.1 °F 49% 29.91 in 10.0 mi ENE 10.4 mph - 0.00 in Rain Light Rain
1:53 AM 50.0 °F - 33.1 °F 52% 29.93 in 10.0 mi ENE 8.1 mph - 0.00 in Rain Light Rain
2:53 AM 48.0 °F - 33.1 °F 56% 29.94 in 10.0 mi ENE 5.8 mph - 0.00 in Rain Light Rain
3:53 AM 46.0 °F 42.5 °F 32.0 °F 58% 29.96 in 10.0 mi NNE 6.9 mph - 0.00 in   Clear
4:53 AM 44.1 °F 41.5 °F 32.0 °F 63% 29.96 in 10.0 mi NE 4.6 mph - N/A   Clear
5:53 AM 44.1 °F 41.5 °F 32.0 °F 63% 29.96 in 10.0 mi NE 4.6 mph - N/A   Clear
6:53 AM 42.1 °F 38.4 °F 30.9 °F 65% 29.98 in 10.0 mi NNW 5.8 mph - N/A   Clear
7:53 AM 39.9 °F 35.8 °F 30.9 °F 70% 30.00 in 10.0 mi NNW 5.8 mph - N/A   Clear
8:53 AM 46.9 °F - 33.1 °F 59% 30.02 in 10.0 mi NNW 4.6 mph - N/A   Clear
9:53 AM 54.0 °F - 32.0 °F 43% 30.01 in 10.0 mi Calm Calm - N/A   Clear
10:53 AM 59.0 °F - 34.0 °F 39% 30.01 in 10.0 mi Variable 3.5 mph - N/A   Clear
11:53 AM 64.9 °F - 35.1 °F 33% 29.99 in 7.0 mi Variable 3.5 mph - N/A   Clear
1:53 PM 73.9 °F - 33.1 °F 22% 29.92 in 10.0 mi Calm Calm - N/A   Clear
2:53 PM 78.1 °F - 32.0 °F 19% 29.88 in 10.0 mi South 8.1 mph - N/A   Clear
3:53 PM 81.0 °F - 30.9 °F 16% 29.84 in 10.0 mi SE 12.7 mph - N/A   Clear
4:53 PM 82.0 °F - 26.1 °F 13% 29.81 in 10.0 mi South 15.0 mph - N/A   Clear
5:53 PM 79.0 °F - 26.1 °F 14% 29.81 in 10.0 mi South 18.4 mph - N/A   Clear
6:53 PM 79.0 °F - 26.1 °F 14% 29.80 in 10.0 mi SSE 17.3 mph - N/A   Clear
7:53 PM 75.9 °F - 26.1 °F 16% 29.80 in 10.0 mi SSE 12.7 mph - N/A   Clear
8:53 PM 68.0 °F - 27.0 °F 21% 29.80 in 10.0 mi SSE 9.2 mph - N/A   Clear
9:53 PM 69.1 °F - 27.0 °F 21% 29.79 in 10.0 mi South 12.7 mph - N/A   Clear
10:53 PM 64.0 °F - 28.9 °F 27% 29.78 in 10.0 mi South 10.4 mph - N/A   Clear
11:53 PM 63.0 °F - 30.9 °F 30% 29.75 in 10.0 mi South 11.5 mph - N/A   Clear